Simultaneous Nadir Overpasses (SNOs) Predictions

Prediction of SNOs between AQUA and METOP-C Satellite Orbit:

Table of predicted SNOs for the next 14.0 days since TLE Epoch: 9/21/2024
Index Date (AQUA) Time (AQUA) Lat,Lon (AQUA) SZA (AQUA ) Date (METOP-C) Time (METOP-C) Lat,Lon (METOP-C) SZA (METOP-C ) Distance(km) Time Diff (sec)
1 09/22/2024 17:18:00 75.66, -79.79 75.66 09/22/2024 17:16:56 75.69, -79.79 75.69 3.33 64
2 09/22/2024 18:07:21 -75.72, 87.70 104.28 09/22/2024 18:07:36 -75.74, 87.70 104.25 2.29 15
3 09/25/2024 07:48:22 75.69, 62.56 76.71 09/25/2024 07:47:15 75.67, 62.59 76.69 2.61 67
4 09/25/2024 08:37:43 -75.75,-129.94 103.23 09/25/2024 08:37:55 -75.73,-129.91 103.25 2.87 12
5 09/27/2024 22:18:40 75.69,-154.95 77.72 09/27/2024 22:17:32 75.69,-154.93 77.72 0.44 68
6 09/27/2024 23:08:01 -75.74, 12.56 102.22 09/27/2024 23:08:12 -75.75, 12.59 102.21 1.15 11
7 09/27/2024 23:57:35 76.34, 178.31 78.39 09/27/2024 23:58:39 76.36,-177.98 78.45 97.26 64
8 09/30/2024 12:48:57 75.68, -12.46 78.73 09/30/2024 12:47:50 75.69, -12.50 78.74 1.26 67
9 09/30/2024 13:38:18 -75.73, 155.06 101.21 09/30/2024 13:38:30 -75.75, 155.04 101.19 2.27 12
10 10/03/2024 03:19:12 75.69, 130.03 79.74 10/03/2024 03:18:08 75.68, 129.89 79.73 3.90 64
11 10/03/2024 04:08:33 -75.73, -62.45 100.20 10/03/2024 04:08:48 -75.75, -62.56 100.19 3.37 15



Historial Predications of SNOs between AQUA and METOP-C
